OK5TVR-6 Weather Reports


time (UTC)temp
C
wind
direction
speed
KPH
gust
KPH
rain 1hr
cm
rain 24hr
cm
rain mn
cm
humidity
%
barometer
mb
20260508042955 11 222 0.0 0.0 0.00 0.00 0.00 1010.0
20260508041138 11 180 0.0 0.0 0.00 0.00 0.00 1009.9
20260508035322 10 180 0.0 0.0 0.00 0.00 0.00 1009.7
20260508033505 10 0 0.0 0.0 0.03 0.00 0.00 1009.6
20260508025832 10 0 6.4 0.0 0.03 0.00 0.00 1009.6
20260508024015 10 270 25.7 0.0 0.00 0.00 0.00 1009.6
20260508022159 10 0 0.0 0.0 0.00 0.00 0.00 1009.6
20260508020342 10 0 8.0 0.0 0.00 0.00 0.00 1009.5
20260508014526 10 0 0.0 0.0 0.00 0.00 0.00 1009.6
20260508012709 10 270 0.0 0.0 0.00 0.00 0.00 1009.5
20260508010853 10 0 0.0 0.0 0.05 0.00 0.00 1009.5
20260508005036 10 315 0.0 0.0 0.03 0.00 0.00 1009.6
20260508003219 10 0 8.0 0.0 0.03 0.00 0.00 1009.5
20260508001403 10 222 35.4 0.0 0.00 0.00 0.00 1009.6
20260507235546 10 0 29.0 0.0 0.00 0.00 0.00 1009.7
20260507233730 11 0 0.0 0.0 0.00 0.00 0.00 1009.8
20260507231913 11 0 29.0 0.0 0.00 0.00 0.00 1009.8
20260507230057 11 0 0.0 0.0 0.00 0.00 0.00 1009.7
20260507224240 11 0 20.9 0.0 0.00 0.00 0.00 1009.8
20260507222424 11 0 0.0 0.0 0.00 0.00 0.00 1009.8
20260507220607 11 0 0.0 0.0 0.00 0.00 0.00 1009.7
20260507214752 10 270 20.9 0.0 0.00 0.00 0.00 1009.6
20260507212935 10 315 32.2 0.0 0.00 0.00 0.00 1009.4
20260507211119 10 90 82.1 0.0 0.00 0.00 0.00 1009.4
20260507205306 10 315 29.0 0.0 0.00 0.00 0.00 1009.4
20260507203446 10 0 19.3 0.0 0.00 0.00 0.00 1009.1
20260507201630 11 270 53.1 0.0 0.00 0.00 0.00 1008.9
20260507195815 11 270 20.9 0.0 0.00 0.00 0.00 1008.9
20260507194006 11 270 0.0 0.0 0.00 0.00 0.00 1004.0
20260507192200 11 222 9.7 0.0 0.00 0.00 0.00 1004.0
20260507190357 11 222 64.4 0.0 0.03 0.00 0.00 1003.8
20260507184554 12 0 32.2 0.0 0.03 0.00 0.00 1003.7
20260507182750 12 270 66.0 0.0 0.00 0.00 0.00 1003.5
20260507180947 12 0 78.9 0.0 0.00 0.00 0.00 1003.3
20260507175143 12 315 41.8 0.0 0.00 0.00 0.00 1003.4
20260507173340 12 0 51.5 0.0 0.00 0.00 0.00 1003.4
20260507171537 12 0 43.5 0.0 0.00 0.00 0.00 1003.0
20260507165733 12 270 16.1 0.0 0.00 0.00 0.00 1003.1
20260507163929 13 315 38.6 0.0 0.00 0.00 0.00 1002.8
20260507162125 13 0 66.0 0.0 0.00 0.00 0.00 1002.9
20260507160321 13 222 67.6 0.0 0.00 0.00 0.00 1002.9
20260507154515 15 0 27.4 0.0 0.00 0.00 0.00 1002.9
20260507152707 16 222 29.0 0.0 0.00 0.00 0.00 1002.9
20260507150903 12 180 104.6 0.0 0.00 0.00 0.00 1002.5
20260507145059 13 270 90.1 0.0 0.00 0.00 0.00 1002.5
20260507143250 17 270 133.6 0.0 0.00 0.00 0.00 1002.6
20260507141436 16 315 91.7 0.0 0.00 0.00 0.00 1002.7
20260507135621 17 315 99.8 0.0 0.00 0.00 0.00 1006.3
20260507133804 15 0 222.1 0.0 0.00 0.00 0.00 1006.3
20260507131954 16 0 85.3 0.0 0.00 0.00 0.00 1002.4
20260507130140 18 222 67.6 0.0 0.00 0.00 0.00 1002.3
20260507124326 17 315 104.6 0.0 0.00 0.00 0.00 1002.1
20260507122509 18 0 162.5 0.0 0.00 0.00 0.00 1005.8
20260507120652 20 0 88.5 0.0 0.00 0.00 0.00 1005.6
20260507114836 19 180 178.6 0.0 0.00 0.00 0.00 1005.6
20260507113019 18 270 98.2 0.0 0.00 0.00 0.00 1005.7
20260507111203 17 0 156.1 0.0 0.00 0.00 0.00 1005.6
20260507105346 18 270 66.0 0.0 0.00 0.00 0.00 1005.6
20260507103530 18 315 32.2 0.0 0.00 0.00 0.00 1005.3
20260507101713 20 270 151.3 0.0 0.00 0.00 0.00 1005.4
20260507095858 17 270 51.5 0.0 0.00 0.00 0.00 1001.5
20260507094042 17 222 19.3 0.0 0.00 0.00 0.00 1067.6
20260507092227 16 222 43.5 0.0 0.00 0.00 0.00 1071.6
20260507090412 16 135 90.1 0.0 0.00 0.00 0.00 1001.5
20260507084556 16 222 103.0 0.0 0.00 0.00 0.00 1001.3
20260507082739 15 222 151.3 0.0 0.00 0.00 0.00 1004.9
20260507080923 16 0 91.7 0.0 0.00 0.00 0.00 1004.7
20260507075106 15 0 19.3 0.0 0.00 0.00 0.00 1004.5
20260507073254 16 270 70.8 0.0 0.00 0.00 0.00 1000.6
20260507071449 15 222 128.7 0.0 0.00 0.00 0.00 1000.3
20260507065644 14 180 103.0 0.0 0.00 0.00 0.00 1000.1
20260507063839 14 0 112.7 0.0 0.00 0.00 0.00 999.9
20260507062036 13 0 86.9 0.0 0.00 0.00 0.00 999.8
20260507060231 13 315 64.4 0.0 0.00 0.00 0.00 999.6
20260507054427 13 270 112.7 0.0 0.00 0.00 0.00 999.3
20260507052624 13 0 51.5 0.0 0.00 0.00 0.00 999.0
20260507050811 13 222 62.8 0.0 0.00 0.00 0.00 1082.8
20260507045007 12 270 90.1 0.0 0.00 0.00 0.00 998.7